Time,TemperatureF,DewpointF,PressureIn,WindDirection,WindDirectionDegrees,WindSpeedMPH,WindSpeedGustMPH,Humidity,HourlyPrecipIn,Conditions,Clouds,dailyrainin,SoftwareType,DateUTC
2013-09-10 00:00:00,66.1,44.2,30.15,SW,224,0.0,5.0,45,0.00,,---,0.00,VWS V14.01,2013-09-10 04:00:00,
2013-09-10 00:01:00,66.1,44.2,30.15,SW,224,0.0,5.0,45,0.00,,---,0.00,VWS V14.01,2013-09-10 04:01:00,
2013-09-10 00:02:00,66.1,44.2,30.15,SW,224,1.0,1.0,45,0.00,,---,0.00,VWS V14.01,2013-09-10 04:02:00,
2013-09-10 00:03:00,66.1,44.2,30.15,SW,224,0.0,1.0,45,0.00,,---,0.00,VWS V14.01,2013-09-10 04:03:00,
2013-09-10 00:07:00,66.1,44.2,30.14,SSW,204,0.0,2.0,45,0.00,,---,0.00,VWS V14.01,2013-09-10 04:07:00,
2013-09-10 00:12:00,66.2,44.2,30.15,West,259,0.0,5.0,45,0.00,,---,0.00,VWS V14.01,2013-09-10 04:12:00,
2013-09-10 00:15:00,66.2,44.3,30.15,West,259,0.0,5.0,45,0.00,,---,0.00,VWS V14.01,2013-09-10 04:15:00,
2013-09-10 00:17:00,66.2,44.2,30.15,West,259,0.0,4.0,45,0.00,,---,0.00,VWS V14.01,2013-09-10 04:17:00,
2013-09-10 00:22:00,66.2,43.7,30.15,WSW,258,0.0,4.0,44,0.00,,---,0.00,VWS V14.01,2013-09-10 04:22:00,
2013-09-10 00:27:00,66.2,43.7,30.15,SW,232,2.0,8.0,44,0.00,,---,0.00,VWS V14.01,2013-09-10 04:27:00,
2013-09-10 00:30:00,66.2,43.7,30.15,SW,234,0.0,8.0,44,0.00,,---,0.00,VWS V14.01,2013-09-10 04:30:00,
2013-09-10 00:32:00,66.2,43.7,30.15,SW,232,0.0,0.0,44,0.00,,---,0.00,VWS V14.01,2013-09-10 04:32:00,
2013-09-10 00:37:00,66.1,43.6,30.15,WSW,253,0.0,6.0,44,0.00,,---,0.00,VWS V14.01,2013-09-10 04:37:00,
2013-09-10 00:43:00,66.1,43.6,30.15,WSW,253,0.0,6.0,44,0.00,,---,0.00,VWS V14.01,2013-09-10 04:43:00,
2013-09-10 00:45:00,66.1,43.0,30.15,WSW,253,0.0,6.0,43,0.00,,---,0.00,VWS V14.01,2013-09-10 04:45:00,
2013-09-10 00:48:00,66.1,43.0,30.15,WSW,256,1.0,4.0,43,0.00,,---,0.00,VWS V14.01,2013-09-10 04:48:00,
2013-09-10 00:53:00,66.0,42.9,30.14,SW,236,1.0,4.0,43,0.00,,---,0.00,VWS V14.01,2013-09-10 04:53:00,
2013-09-10 00:58:00,66.0,42.9,30.14,SW,232,0.0,4.0,43,0.00,,---,0.00,VWS V14.01,2013-09-10 04:58:00,
2013-09-10 01:00:00,66.0,42.9,30.14,SW,229,0.0,4.0,43,0.00,,---,0.00,VWS V14.01,2013-09-10 05:00:00,
2013-09-10 01:03:00,66.0,42.9,30.14,SW,225,3.0,5.0,43,0.00,,---,0.00,VWS V14.01,2013-09-10 05:03:00,
2013-09-10 01:08:00,66.1,43.0,30.14,South,178,1.0,5.0,43,0.00,,---,0.00,VWS V14.01,2013-09-10 05:08:00,
2013-09-10 01:13:00,66.1,42.4,30.14,South,180,0.0,5.0,42,0.00,,---,0.00,VWS V14.01,2013-09-10 05:13:00,
2013-09-10 01:15:00,66.2,42.5,30.14,SW,229,0.0,5.0,42,0.00,,---,0.00,VWS V14.01,2013-09-10 05:15:00,
2013-09-10 01:18:00,66.2,42.5,30.13,SSE,167,0.0,3.0,42,0.00,,---,0.00,VWS V14.01,2013-09-10 05:18:00,
2013-09-10 01:23:00,66.2,42.5,30.13,SW,235,0.0,5.0,42,0.00,,---,0.00,VWS V14.01,2013-09-10 05:23:00,
2013-09-10 01:28:00,66.2,42.5,30.12,SSE,161,1.0,9.0,42,0.00,,---,0.00,VWS V14.01,2013-09-10 05:28:00,
2013-09-10 01:30:00,66.3,42.5,30.12,West,259,0.0,9.0,42,0.00,,---,0.00,VWS V14.01,2013-09-10 05:30:00,
2013-09-10 01:33:00,66.3,42.5,30.12,ESE,117,0.0,3.0,42,0.00,,---,0.00,VWS V14.01,2013-09-10 05:33:00,
2013-09-10 01:38:00,66.3,41.9,30.12,SSW,194,2.0,8.0,41,0.00,,---,0.00,VWS V14.01,2013-09-10 05:38:00,
2013-09-10 01:43:00,66.3,41.9,30.12,North,5,0.0,8.0,41,0.00,,---,0.00,VWS V14.01,2013-09-10 05:43:00,
2013-09-10 01:45:00,66.4,42.0,30.13,NNW,348,3.0,8.0,41,0.00,,---,0.00,VWS V14.01,2013-09-10 05:45:00,
2013-09-10 01:48:00,66.4,42.0,30.13,South,179,0.0,4.0,41,0.00,,---,0.00,VWS V14.01,2013-09-10 05:48:00,
2013-09-10 01:53:00,66.4,42.0,30.13,WSW,256,0.0,7.0,41,0.00,,---,0.00,VWS V14.01,2013-09-10 05:53:00,
2013-09-10 01:58:00,66.4,42.0,30.13,WSW,237,0.0,7.0,41,0.00,,---,0.00,VWS V14.01,2013-09-10 05:58:00,
2013-09-10 02:00:00,66.4,41.4,30.13,WSW,237,0.0,7.0,40,0.00,,---,0.00,VWS V14.01,2013-09-10 06:00:00,
2013-09-10 02:03:00,66.4,41.4,30.13,SW,218,0.0,4.0,40,0.00,,---,0.00,VWS V14.01,2013-09-10 06:03:00,
2013-09-10 02:08:00,66.5,41.5,30.13,SW,227,0.0,4.0,40,0.00,,---,0.00,VWS V14.01,2013-09-10 06:08:00,
2013-09-10 02:13:00,66.5,41.5,30.14,WSW,242,0.0,5.0,40,0.00,,---,0.00,VWS V14.01,2013-09-10 06:13:00,
2013-09-10 02:15:00,66.5,41.5,30.14,WSW,244,0.0,5.0,40,0.00,,---,0.00,VWS V14.01,2013-09-10 06:15:00,
2013-09-10 02:18:00,66.5,41.5,30.13,SSW,194,0.0,4.0,40,0.00,,---,0.00,VWS V14.01,2013-09-10 06:18:00,
2013-09-10 02:23:00,66.6,41.5,30.13,WSW,254,0.0,4.0,40,0.00,,---,0.00,VWS V14.01,2013-09-10 06:23:00,
2013-09-10 02:28:00,66.6,41.5,30.13,SW,229,4.0,4.0,40,0.00,,---,0.00,VWS V14.01,2013-09-10 06:28:00,
2013-09-10 02:30:00,66.6,41.5,30.13,SW,229,0.0,4.0,40,0.00,,---,0.00,VWS V14.01,2013-09-10 06:30:00,
2013-09-10 02:33:00,66.6,41.5,30.13,SW,229,0.0,0.0,40,0.00,,---,0.00,VWS V14.01,2013-09-10 06:33:00,
2013-09-10 02:38:00,66.6,41.5,30.13,South,189,0.0,2.0,40,0.00,,---,0.00,VWS V14.01,2013-09-10 06:38:00,
2013-09-10 02:43:00,66.7,41.6,30.13,South,187,0.0,5.0,40,0.00,,---,0.00,VWS V14.01,2013-09-10 06:43:00,
2013-09-10 02:45:00,66.7,41.6,30.13,South,186,0.0,5.0,40,0.00,,---,0.00,VWS V14.01,2013-09-10 06:45:00,
2013-09-10 02:48:00,66.7,41.6,30.13,West,273,0.0,5.0,40,0.00,,---,0.00,VWS V14.01,2013-09-10 06:48:00,
2013-09-10 02:53:00,66.6,40.9,30.13,SSE,157,2.0,5.0,39,0.00,,---,0.00,VWS V14.01,2013-09-10 06:53:00,
2013-09-10 02:58:00,66.6,40.9,30.13,SSE,153,0.0,7.0,39,0.00,,---,0.00,VWS V14.01,2013-09-10 06:58:00,
2013-09-10 03:00:00,66.7,41.0,30.13,SSE,153,0.0,7.0,39,0.00,,---,0.00,VWS V14.01,2013-09-10 07:00:00,
2013-09-10 03:03:00,66.6,40.9,30.13,SSE,162,0.0,1.0,39,0.00,,---,0.00,VWS V14.01,2013-09-10 07:03:00,
2013-09-10 03:08:00,66.6,40.9,30.13,WSW,250,0.0,6.0,39,0.00,,---,0.00,VWS V14.01,2013-09-10 07:08:00,
2013-09-10 03:14:00,66.7,41.0,30.13,WSW,249,0.0,6.0,39,0.00,,---,0.00,VWS V14.01,2013-09-10 07:14:00,
2013-09-10 03:15:00,66.7,41.0,30.12,WSW,244,0.0,6.0,39,0.00,,---,0.00,VWS V14.01,2013-09-10 07:15:00,
2013-09-10 03:19:00,66.7,41.0,30.12,WSW,244,0.0,0.0,39,0.00,,---,0.00,VWS V14.01,2013-09-10 07:19:00,
2013-09-10 03:24:00,66.7,41.0,30.12,West,259,0.0,1.0,39,0.00,,---,0.00,VWS V14.01,2013-09-10 07:24:00,
2013-09-10 03:29:00,66.7,41.0,30.12,West,263,0.0,4.0,39,0.00,,---,0.00,VWS V14.01,2013-09-10 07:29:00,
2013-09-10 03:30:00,66.7,41.0,30.12,West,262,1.0,4.0,39,0.00,,---,0.00,VWS V14.01,2013-09-10 07:30:00,
2013-09-10 03:34:00,66.7,41.0,30.12,SW,219,0.0,5.0,39,0.00,,---,0.00,VWS V14.01,2013-09-10 07:34:00,
2013-09-10 03:39:00,66.7,41.0,30.12,SW,219,0.0,5.0,39,0.00,,---,0.00,VWS V14.01,2013-09-10 07:39:00,
2013-09-10 03:44:00,66.7,41.0,30.12,SW,226,0.0,5.0,39,0.00,,---,0.00,VWS V14.01,2013-09-10 07:44:00,
2013-09-10 03:45:00,66.7,41.0,30.12,SW,226,0.0,5.0,39,0.00,,---,0.00,VWS V14.01,2013-09-10 07:45:00,
2013-09-10 03:49:00,66.7,40.3,30.12,WSW,240,0.0,5.0,38,0.00,,---,0.00,VWS V14.01,2013-09-10 07:49:00,
2013-09-10 03:54:00,66.7,40.3,30.12,SW,227,0.0,5.0,38,0.00,,---,0.00,VWS V14.01,2013-09-10 07:54:00,
2013-09-10 03:59:00,66.7,40.3,30.12,WSW,249,0.0,5.0,38,0.00,,---,0.00,VWS V14.01,2013-09-10 07:59:00,
2013-09-10 04:00:00,66.8,40.4,30.12,South,190,0.0,5.0,38,0.00,,---,0.00,VWS V14.01,2013-09-10 08:00:00,
2013-09-10 04:04:00,66.8,40.4,30.12,SSW,211,0.0,6.0,38,0.00,,---,0.00,VWS V14.01,2013-09-10 08:04:00,
2013-09-10 04:09:00,66.9,40.5,30.12,West,273,0.0,7.0,38,0.00,,---,0.00,VWS V14.01,2013-09-10 08:09:00,
2013-09-10 04:14:00,66.9,40.5,30.11,South,171,0.0,7.0,38,0.00,,---,0.00,VWS V14.01,2013-09-10 08:14:00,
2013-09-10 04:15:00,66.9,40.5,30.11,South,171,0.0,7.0,38,0.00,,---,0.00,VWS V14.01,2013-09-10 08:15:00,
2013-09-10 04:19:00,66.9,40.5,30.12,WSW,258,0.0,5.0,38,0.00,,---,0.00,VWS V14.01,2013-09-10 08:19:00,
2013-09-10 04:24:00,66.9,40.5,30.12,West,259,3.0,6.0,38,0.00,,---,0.00,VWS V14.01,2013-09-10 08:24:00,
2013-09-10 04:29:00,66.9,40.5,30.12,SW,227,0.0,6.0,38,0.00,,---,0.00,VWS V14.01,2013-09-10 08:29:00,
2013-09-10 04:30:00,66.9,40.5,30.12,SW,226,0.0,6.0,38,0.00,,---,0.00,VWS V14.01,2013-09-10 08:30:00,
2013-09-10 04:34:00,67.0,40.6,30.12,SW,225,0.0,4.0,38,0.00,,---,0.00,VWS V14.01,2013-09-10 08:34:00,
2013-09-10 04:39:00,67.0,40.6,30.12,WSW,240,2.0,4.0,38,0.00,,---,0.00,VWS V14.01,2013-09-10 08:39:00,
2013-09-10 04:44:00,67.0,39.9,30.12,South,173,0.0,4.0,37,0.00,,---,0.00,VWS V14.01,2013-09-10 08:44:00,
2013-09-10 04:45:00,67.0,39.9,30.12,South,180,1.0,4.0,37,0.00,,---,0.00,VWS V14.01,2013-09-10 08:45:00,
2013-09-10 04:49:00,67.0,39.9,30.12,WSW,255,1.0,5.0,37,0.00,,---,0.00,VWS V14.01,2013-09-10 08:49:00,
2013-09-10 04:54:00,67.1,40.0,30.12,WSW,250,6.0,8.0,37,0.00,,---,0.00,VWS V14.01,2013-09-10 08:54:00,
2013-09-10 04:59:00,67.1,40.0,30.12,SW,229,6.0,8.0,37,0.00,,---,0.00,VWS V14.01,2013-09-10 08:59:00,
2013-09-10 05:00:00,67.1,40.0,30.12,SW,223,0.0,8.0,37,0.00,,---,0.00,VWS V14.01,2013-09-10 09:00:00,
2013-09-10 05:04:00,67.1,40.0,30.12,WSW,256,0.0,5.0,37,0.00,,---,0.00,VWS V14.01,2013-09-10 09:04:00,
2013-09-10 05:09:00,67.1,40.0,30.12,West,263,4.0,12.0,37,0.00,,---,0.00,VWS V14.01,2013-09-10 09:09:00,
2013-09-10 05:14:00,67.1,40.0,30.12,West,261,2.0,12.0,37,0.00,,---,0.00,VWS V14.01,2013-09-10 09:14:00,
2013-09-10 05:15:00,67.1,40.0,30.12,SW,228,1.0,12.0,37,0.00,,---,0.00,VWS V14.01,2013-09-10 09:15:00,
2013-09-10 05:19:00,67.1,40.0,30.12,WSW,242,2.0,5.0,37,0.00,,---,0.00,VWS V14.01,2013-09-10 09:19:00,
2013-09-10 05:24:00,67.1,39.3,30.12,SW,231,0.0,5.0,36,0.00,,---,0.00,VWS V14.01,2013-09-10 09:24:00,
2013-09-10 05:29:00,67.2,39.4,30.13,SE,140,3.0,8.0,36,0.00,,---,0.00,VWS V14.01,2013-09-10 09:29:00,
2013-09-10 05:30:00,67.2,39.4,30.13,SW,219,3.0,8.0,36,0.00,,---,0.00,VWS V14.01,2013-09-10 09:30:00,
2013-09-10 05:34:00,67.2,39.4,30.13,SW,220,0.0,4.0,36,0.00,,---,0.00,VWS V14.01,2013-09-10 09:34:00,
2013-09-10 05:39:00,67.2,39.4,30.12,SW,234,0.0,5.0,36,0.00,,---,0.00,VWS V14.01,2013-09-10 09:39:00,
2013-09-10 05:45:00,67.2,39.4,30.12,SW,236,2.0,7.0,36,0.00,,---,0.00,VWS V14.01,2013-09-10 09:45:00,
2013-09-10 05:50:00,67.3,39.5,30.12,WSW,238,2.0,6.0,36,0.00,,---,0.00,VWS V14.01,2013-09-10 09:50:00,
2013-09-10 05:55:00,67.4,39.5,30.12,South,172,4.0,7.0,36,0.00,,---,0.00,VWS V14.01,2013-09-10 09:55:00,
2013-09-10 06:00:00,67.5,38.9,30.13,SW,236,0.0,7.0,35,0.00,,---,0.00,VWS V14.01,2013-09-10 10:00:00,
2013-09-10 06:05:00,67.5,38.9,30.13,SW,236,2.0,4.0,35,0.00,,---,0.00,VWS V14.01,2013-09-10 10:05:00,
2013-09-10 06:10:00,67.5,38.9,30.13,WSW,252,2.0,7.0,35,0.00,,---,0.00,VWS V14.01,2013-09-10 10:10:00,
2013-09-10 06:15:00,67.6,39.0,30.14,SW,233,9.0,9.0,35,0.00,,---,0.00,VWS V14.01,2013-09-10 10:15:00,
2013-09-10 06:20:00,67.7,39.1,30.14,WSW,254,0.0,3.0,35,0.00,,---,0.00,VWS V14.01,2013-09-10 10:20:00,
2013-09-10 06:25:00,67.7,39.1,30.14,SW,234,0.0,7.0,35,0.00,,---,0.00,VWS V14.01,2013-09-10 10:25:00,
2013-09-10 06:30:00,67.7,39.1,30.14,West,261,1.0,9.0,35,0.00,,---,0.00,VWS V14.01,2013-09-10 10:30:00,
2013-09-10 06:35:00,67.7,39.1,30.14,WSW,257,0.0,4.0,35,0.00,,---,0.00,VWS V14.01,2013-09-10 10:35:00,
2013-09-10 06:40:00,67.7,39.1,30.14,SSW,204,0.0,5.0,35,0.00,,---,0.00,VWS V14.01,2013-09-10 10:40:00,
2013-09-10 06:45:00,67.7,39.1,30.14,WSW,250,0.0,5.0,35,0.00,,---,0.00,VWS V14.01,2013-09-10 10:45:00,
2013-09-10 06:50:00,67.7,39.1,30.14,SSW,204,5.0,6.0,35,0.00,,---,0.00,VWS V14.01,2013-09-10 10:50:00,
2013-09-10 06:55:00,67.8,38.4,30.14,SW,217,1.0,6.0,34,0.00,,---,0.00,VWS V14.01,2013-09-10 10:55:00,
2013-09-10 07:00:00,67.8,38.4,30.14,WSW,246,0.0,6.0,34,0.00,,---,0.00,VWS V14.01,2013-09-10 11:00:00,
2013-09-10 07:05:00,67.9,38.5,30.14,WSW,249,5.0,8.0,34,0.00,,---,0.00,VWS V14.01,2013-09-10 11:05:00,
2013-09-10 07:10:00,67.9,38.5,30.14,SW,222,4.0,9.0,34,0.00,,---,0.00,VWS V14.01,2013-09-10 11:10:00,
2013-09-10 07:15:00,68.0,38.6,30.14,SW,223,1.0,9.0,34,0.00,,---,0.00,VWS V14.01,2013-09-10 11:15:00,
2013-09-10 07:20:00,68.0,38.6,30.14,SW,217,5.0,6.0,34,0.00,,---,0.00,VWS V14.01,2013-09-10 11:20:00,
2013-09-10 07:25:00,68.0,38.6,30.14,SW,216,2.0,6.0,34,0.00,,---,0.00,VWS V14.01,2013-09-10 11:25:00,
2013-09-10 07:30:00,68.1,38.7,30.14,SSW,207,3.0,7.0,34,0.00,,---,0.00,VWS V14.01,2013-09-10 11:30:00,
2013-09-10 07:35:00,68.2,38.8,30.13,SSW,200,3.0,10.0,34,0.00,,---,0.00,VWS V14.01,2013-09-10 11:35:00,
2013-09-10 07:41:00,68.4,39.0,30.13,WSW,257,5.0,10.0,34,0.00,,---,0.00,VWS V14.01,2013-09-10 11:41:00,
2013-09-10 07:45:00,68.5,39.0,30.13,WSW,237,0.0,11.0,34,0.00,,---,0.00,VWS V14.01,2013-09-10 11:45:00,
2013-09-10 07:46:00,68.5,39.0,30.13,SW,227,4.0,11.0,34,0.00,,---,0.00,VWS V14.01,2013-09-10 11:46:00,
2013-09-10 07:51:00,68.6,39.1,30.13,SW,234,2.0,8.0,34,0.00,,---,0.00,VWS V14.01,2013-09-10 11:51:00,
2013-09-10 07:56:00,68.7,39.2,30.13,South,188,2.0,8.0,34,0.00,,---,0.00,VWS V14.01,2013-09-10 11:56:00,
2013-09-10 08:00:00,68.9,39.4,30.13,South,190,1.0,8.0,34,0.00,,---,0.00,VWS V14.01,2013-09-10 12:00:00,
2013-09-10 08:01:00,68.9,39.4,30.13,SW,236,3.0,8.0,34,0.00,,---,0.00,VWS V14.01,2013-09-10 12:01:00,
2013-09-10 08:06:00,69.0,39.5,30.13,SSW,204,4.0,12.0,34,0.00,,---,0.00,VWS V14.01,2013-09-10 12:06:00,
2013-09-10 08:11:00,69.2,39.7,30.13,South,178,3.0,12.0,34,0.00,,---,0.00,VWS V14.01,2013-09-10 12:11:00,
2013-09-10 08:15:00,69.3,39.8,30.13,West,269,4.0,12.0,34,0.00,,---,0.00,VWS V14.01,2013-09-10 12:15:00,
2013-09-10 08:16:00,69.3,39.8,30.13,WSW,239,3.0,12.0,34,0.00,,---,0.00,VWS V14.01,2013-09-10 12:16:00,
2013-09-10 08:21:00,69.4,39.8,30.13,SW,226,0.0,10.0,34,0.00,,---,0.00,VWS V14.01,2013-09-10 12:21:00,
2013-09-10 08:26:00,69.5,39.9,30.13,WSW,251,0.0,10.0,34,0.00,,---,0.00,VWS V14.01,2013-09-10 12:26:00,
2013-09-10 08:30:00,69.5,39.9,30.13,South,185,4.0,10.0,34,0.00,,---,0.00,VWS V14.01,2013-09-10 12:30:00,
2013-09-10 08:31:00,69.5,39.9,30.13,WSW,250,5.0,10.0,34,0.00,,---,0.00,VWS V14.01,2013-09-10 12:31:00,
2013-09-10 08:36:00,69.6,40.0,30.14,SW,227,7.0,9.0,34,0.00,,---,0.00,VWS V14.01,2013-09-10 12:36:00,
2013-09-10 08:41:00,69.7,40.1,30.14,WSW,238,4.0,9.0,34,0.00,,---,0.00,VWS V14.01,2013-09-10 12:41:00,
2013-09-10 08:45:00,69.9,40.3,30.14,West,271,2.0,9.0,34,0.00,,---,0.00,VWS V14.01,2013-09-10 12:45:00,
2013-09-10 08:46:00,69.9,40.3,30.14,West,271,2.0,9.0,34,0.00,,---,0.00,VWS V14.01,2013-09-10 12:46:00,
2013-09-10 08:51:00,70.0,40.4,30.14,West,271,5.0,9.0,34,0.00,,---,0.00,VWS V14.01,2013-09-10 12:51:00,
2013-09-10 08:56:00,70.1,40.5,30.15,SW,227,1.0,11.0,34,0.00,,---,0.00,VWS V14.01,2013-09-10 12:56:00,
2013-09-10 09:00:00,70.3,40.6,30.15,South,182,6.0,12.0,34,0.00,,---,0.00,VWS V14.01,2013-09-10 13:00:00,
2013-09-10 09:01:00,70.3,40.6,30.15,SSW,200,4.0,4.0,34,0.00,,---,0.00,VWS V14.01,2013-09-10 13:01:00,
2013-09-10 09:06:00,70.5,40.8,30.14,SSW,209,3.0,8.0,34,0.00,,---,0.00,VWS V14.01,2013-09-10 13:06:00,
2013-09-10 09:11:00,70.9,41.2,30.15,SW,215,6.0,8.0,34,0.00,,---,0.00,VWS V14.01,2013-09-10 13:11:00,
2013-09-10 09:15:00,71.2,42.2,30.15,West,263,5.0,11.0,35,0.00,,---,0.00,VWS V14.01,2013-09-10 13:15:00,
2013-09-10 09:16:00,71.2,42.2,30.15,West,261,5.0,5.0,35,0.00,,---,0.00,VWS V14.01,2013-09-10 13:16:00,
2013-09-10 09:21:00,71.3,43.0,30.16,West,260,4.0,11.0,36,0.00,,---,0.00,VWS V14.01,2013-09-10 13:21:00,
2013-09-10 09:26:00,71.6,42.5,30.16,West,271,0.0,11.0,35,0.00,,---,0.00,VWS V14.01,2013-09-10 13:26:00,
2013-09-10 09:30:00,72.0,43.6,30.16,West,271,5.0,11.0,36,0.00,,---,0.00,VWS V14.01,2013-09-10 13:30:00,
2013-09-10 09:31:00,72.0,43.6,30.16,WSW,244,6.0,9.0,36,0.00,,---,0.00,VWS V14.01,2013-09-10 13:31:00,
2013-09-10 09:36:00,72.0,43.6,30.16,WSW,255,6.0,12.0,36,0.00,,---,0.00,VWS V14.01,2013-09-10 13:36:00,
2013-09-10 09:41:00,72.0,43.6,30.16,SW,214,4.0,13.0,36,0.00,,---,0.00,VWS V14.01,2013-09-10 13:41:00,
2013-09-10 09:45:00,72.3,43.9,30.16,SW,215,4.0,13.0,36,0.00,,---,0.00,VWS V14.01,2013-09-10 13:45:00,
2013-09-10 09:47:00,72.3,43.9,30.16,WSW,237,5.0,5.0,36,0.00,,---,0.00,VWS V14.01,2013-09-10 13:47:00,
2013-09-10 09:52:00,72.9,44.4,30.16,WSW,254,3.0,13.0,36,0.00,,---,0.00,VWS V14.01,2013-09-10 13:52:00,
2013-09-10 09:57:00,73.0,45.2,30.15,WSW,258,7.0,14.0,37,0.00,,---,0.00,VWS V14.01,2013-09-10 13:57:00,
2013-09-10 10:00:00,73.1,45.3,30.15,WSW,243,3.0,14.0,37,0.00,,---,0.00,VWS V14.01,2013-09-10 14:00:00,
2013-09-10 10:02:00,73.1,44.6,30.15,West,264,2.0,7.0,36,0.00,,---,0.00,VWS V14.01,2013-09-10 14:02:00,
2013-09-10 10:07:00,73.3,45.5,30.14,WSW,246,8.0,13.0,37,0.00,,---,0.00,VWS V14.01,2013-09-10 14:07:00,
2013-09-10 10:12:00,73.8,45.9,30.14,SSW,209,9.0,16.0,37,0.00,,---,0.00,VWS V14.01,2013-09-10 14:12:00,
2013-09-10 10:15:00,74.2,47.0,30.14,WSW,249,9.0,16.0,38,0.00,,---,0.00,VWS V14.01,2013-09-10 14:15:00,
2013-09-10 10:17:00,74.3,47.1,30.14,SSW,211,6.0,12.0,38,0.00,,---,0.00,VWS V14.01,2013-09-10 14:17:00,
2013-09-10 10:22:00,74.8,48.2,30.14,WSW,253,4.0,12.0,39,0.00,,---,0.00,VWS V14.01,2013-09-10 14:22:00,
2013-09-10 10:27:00,75.1,49.2,30.14,SW,217,6.0,12.0,40,0.00,,---,0.00,VWS V14.01,2013-09-10 14:27:00,
2013-09-10 10:30:00,75.3,49.3,30.15,WSW,238,3.0,12.0,40,0.00,,---,0.00,VWS V14.01,2013-09-10 14:30:00,
2013-09-10 10:32:00,75.3,49.3,30.15,West,267,8.0,11.0,40,0.00,,---,0.00,VWS V14.01,2013-09-10 14:32:00,
2013-09-10 10:37:00,75.4,50.1,30.14,West,263,8.0,15.0,41,0.00,,---,0.00,VWS V14.01,2013-09-10 14:37:00,
2013-09-10 10:42:00,75.1,49.8,30.15,WNW,300,8.0,15.0,41,0.00,,---,0.00,VWS V14.01,2013-09-10 14:42:00,
2013-09-10 10:45:00,75.1,49.2,30.15,WSW,255,10.0,15.0,40,0.00,,---,0.00,VWS V14.01,2013-09-10 14:45:00,
2013-09-10 10:47:00,75.1,49.2,30.15,WNW,301,10.0,10.0,40,0.00,,---,0.00,VWS V14.01,2013-09-10 14:47:00,
2013-09-10 10:52:00,75.1,49.2,30.15,West,265,3.0,18.0,40,0.00,,---,0.00,VWS V14.01,2013-09-10 14:52:00,
2013-09-10 10:57:00,75.1,49.2,30.14,WSW,247,7.0,18.0,40,0.00,,---,0.00,VWS V14.01,2013-09-10 14:57:00,
2013-09-10 11:00:00,75.7,49.7,30.14,West,269,5.0,18.0,40,0.00,,---,0.00,VWS V14.01,2013-09-10 15:00:00,
2013-09-10 11:02:00,75.8,50.5,30.14,SSW,212,8.0,8.0,41,0.00,,---,0.00,VWS V14.01,2013-09-10 15:02:00,
2013-09-10 11:07:00,76.0,50.6,30.14,SW,234,4.0,16.0,41,0.00,,---,0.00,VWS V14.01,2013-09-10 15:07:00,
2013-09-10 11:12:00,76.0,51.3,30.14,West,275,9.0,19.0,42,0.00,,---,0.00,VWS V14.01,2013-09-10 15:12:00,
2013-09-10 11:15:00,75.9,51.2,30.14,SW,220,5.0,19.0,42,0.00,,---,0.00,VWS V14.01,2013-09-10 15:15:00,
2013-09-10 11:17:00,76.0,51.3,30.14,WNW,298,8.0,8.0,42,0.00,,---,0.00,VWS V14.01,2013-09-10 15:17:00,
2013-09-10 11:22:00,75.8,50.5,30.14,West,274,9.0,11.0,41,0.00,,---,0.00,VWS V14.01,2013-09-10 15:22:00,
2013-09-10 11:27:00,75.7,50.4,30.14,West,265,3.0,12.0,41,0.00,,---,0.00,VWS V14.01,2013-09-10 15:27:00,
2013-09-10 11:30:00,75.7,50.4,30.14,WSW,239,7.0,14.0,41,0.00,,---,0.00,VWS V14.01,2013-09-10 15:30:00,
2013-09-10 11:32:00,75.6,50.3,30.14,WSW,239,10.0,11.0,41,0.00,,---,0.00,VWS V14.01,2013-09-10 15:32:00,
2013-09-10 11:37:00,75.5,49.5,30.13,SSW,200,6.0,15.0,40,0.00,,---,0.00,VWS V14.01,2013-09-10 15:37:00,
2013-09-10 11:42:00,75.5,49.5,30.13,West,272,4.0,15.0,40,0.00,,---,0.00,VWS V14.01,2013-09-10 15:42:00,
2013-09-10 11:45:00,75.6,49.6,30.13,WSW,247,5.0,15.0,40,0.00,,---,0.00,VWS V14.01,2013-09-10 15:45:00,
2013-09-10 11:47:00,75.7,49.7,30.13,WNW,293,10.0,10.0,40,0.00,,---,0.00,VWS V14.01,2013-09-10 15:47:00,
2013-09-10 11:52:00,75.9,49.9,30.12,WSW,256,0.0,12.0,40,0.00,,---,0.00,VWS V14.01,2013-09-10 15:52:00,
2013-09-10 11:57:00,76.2,50.8,30.12,WSW,243,3.0,12.0,41,0.00,,---,0.00,VWS V14.01,2013-09-10 15:57:00,
2013-09-10 12:00:00,76.5,51.1,30.12,WSW,248,7.0,12.0,41,0.00,,---,0.00,VWS V14.01,2013-09-10 16:00:00,
2013-09-10 12:02:00,76.6,51.2,30.11,SW,229,3.0,10.0,41,0.00,,---,0.00,VWS V14.01,2013-09-10 16:02:00,
2013-09-10 12:07:00,77.1,50.9,30.10,SW,235,3.0,10.0,40,0.00,,---,0.00,VWS V14.01,2013-09-10 16:07:00,
2013-09-10 12:13:00,78.1,53.2,30.10,WSW,247,5.0,10.0,42,0.00,,---,0.00,VWS V14.01,2013-09-10 16:13:00,
2013-09-10 12:15:00,78.4,55.3,30.10,WSW,247,3.0,12.0,45,0.00,,---,0.00,VWS V14.01,2013-09-10 16:15:00,
2013-09-10 12:18:00,78.3,55.2,30.10,SSW,213,6.0,8.0,45,0.00,,---,0.00,VWS V14.01,2013-09-10 16:18:00,
2013-09-10 12:23:00,78.4,55.3,30.10,SSW,208,7.0,12.0,45,0.00,,---,0.00,VWS V14.01,2013-09-10 16:23:00,
2013-09-10 12:28:00,78.4,55.3,30.10,SSW,194,6.0,12.0,45,0.00,,---,0.00,VWS V14.01,2013-09-10 16:28:00,
2013-09-10 12:30:00,78.5,55.4,30.10,SW,235,3.0,12.0,45,0.00,,---,0.00,VWS V14.01,2013-09-10 16:30:00,
2013-09-10 12:33:00,78.5,55.4,30.10,SSE,150,5.0,8.0,45,0.00,,---,0.00,VWS V14.01,2013-09-10 16:33:00,
2013-09-10 12:38:00,78.7,56.2,30.10,SW,234,11.0,12.0,46,0.00,,---,0.00,VWS V14.01,2013-09-10 16:38:00,
2013-09-10 12:43:00,78.7,56.8,30.11,SSW,207,2.0,12.0,47,0.00,,---,0.00,VWS V14.01,2013-09-10 16:43:00,
2013-09-10 12:45:00,78.5,56.0,30.11,SW,225,7.0,12.0,46,0.00,,---,0.00,VWS V14.01,2013-09-10 16:45:00,
2013-09-10 12:48:00,78.6,56.1,30.11,SW,234,6.0,9.0,46,0.00,,---,0.00,VWS V14.01,2013-09-10 16:48:00,
2013-09-10 12:53:00,78.7,55.6,30.10,West,266,7.0,10.0,45,0.00,,---,0.00,VWS V14.01,2013-09-10 16:53:00,
2013-09-10 12:58:00,79.3,56.8,30.10,SW,231,4.0,10.0,46,0.00,,---,0.00,VWS V14.01,2013-09-10 16:58:00,
2013-09-10 13:00:00,79.8,58.4,30.10,West,275,9.0,10.0,48,0.00,,---,0.00,VWS V14.01,2013-09-10 17:00:00,
2013-09-10 13:03:00,79.8,58.4,30.10,West,274,8.0,9.0,48,0.00,,---,0.00,VWS V14.01,2013-09-10 17:03:00,
2013-09-10 13:08:00,80.1,58.7,30.10,WSW,256,0.0,9.0,48,0.00,,---,0.00,VWS V14.01,2013-09-10 17:08:00,
2013-09-10 13:13:00,80.6,59.7,30.10,WSW,246,2.0,9.0,49,0.00,,---,0.00,VWS V14.01,2013-09-10 17:13:00,
2013-09-10 13:15:00,80.7,59.8,30.09,West,269,5.0,9.0,49,0.00,,---,0.00,VWS V14.01,2013-09-10 17:15:00,
2013-09-10 13:18:00,80.8,59.9,30.10,West,276,7.0,9.0,49,0.00,,---,0.00,VWS V14.01,2013-09-10 17:18:00,
2013-09-10 13:23:00,81.0,60.6,30.10,West,279,6.0,10.0,50,0.00,,---,0.00,VWS V14.01,2013-09-10 17:23:00,
2013-09-10 13:28:00,81.2,60.8,30.10,WNW,295,1.0,10.0,50,0.00,,---,0.00,VWS V14.01,2013-09-10 17:28:00,
2013-09-10 13:30:00,81.2,60.2,30.09,WSW,257,1.0,10.0,49,0.00,,---,0.00,VWS V14.01,2013-09-10 17:30:00,
2013-09-10 13:33:00,81.2,60.8,30.09,SW,221,4.0,4.0,50,0.00,,---,0.00,VWS V14.01,2013-09-10 17:33:00,
2013-09-10 13:38:00,81.2,61.4,30.09,SSW,207,4.0,10.0,51,0.00,,---,0.00,VWS V14.01,2013-09-10 17:38:00,
2013-09-10 13:43:00,81.5,61.7,30.09,SSE,163,2.0,10.0,51,0.00,,---,0.00,VWS V14.01,2013-09-10 17:43:00,
2013-09-10 13:45:00,81.8,61.4,30.09,SW,221,5.0,10.0,50,0.00,,---,0.00,VWS V14.01,2013-09-10 17:45:00,
2013-09-10 13:48:00,81.7,61.8,30.09,WNW,285,10.0,13.0,51,0.00,,---,0.00,VWS V14.01,2013-09-10 17:48:00,
2013-09-10 13:53:00,81.9,62.0,30.08,SW,231,4.0,13.0,51,0.00,,---,0.00,VWS V14.01,2013-09-10 17:53:00,
2013-09-10 13:58:00,82.0,62.1,30.08,WSW,242,1.0,13.0,51,0.00,,---,0.00,VWS V14.01,2013-09-10 17:58:00,
2013-09-10 14:00:00,82.3,62.4,30.08,SSE,163,4.0,13.0,51,0.00,,---,0.00,VWS V14.01,2013-09-10 18:00:00,
2013-09-10 14:03:00,82.6,63.2,30.08,SSW,205,5.0,9.0,52,0.00,,---,0.00,VWS V14.01,2013-09-10 18:03:00,
2013-09-10 14:08:00,82.7,63.3,30.07,WSW,240,3.0,9.0,52,0.00,,---,0.00,VWS V14.01,2013-09-10 18:08:00,
2013-09-10 14:13:00,82.6,62.7,30.07,West,281,9.0,11.0,51,0.00,,---,0.00,VWS V14.01,2013-09-10 18:13:00,
2013-09-10 14:15:00,82.9,63.5,30.07,SSW,213,6.0,11.0,52,0.00,,---,0.00,VWS V14.01,2013-09-10 18:15:00,
2013-09-10 14:18:00,82.9,63.5,30.07,SW,232,6.0,9.0,52,0.00,,---,0.00,VWS V14.01,2013-09-10 18:18:00,
2013-09-10 14:23:00,83.4,64.0,30.06,SSW,203,0.0,11.0,52,0.00,,---,0.00,VWS V14.01,2013-09-10 18:23:00,
2013-09-10 14:29:00,83.7,64.8,30.06,South,190,5.0,12.0,53,0.00,,---,0.00,VWS V14.01,2013-09-10 18:29:00,
2013-09-10 14:30:00,83.6,64.7,30.06,SW,228,4.0,12.0,53,0.00,,---,0.00,VWS V14.01,2013-09-10 18:30:00,
2013-09-10 14:34:00,83.7,64.8,30.06,SW,225,6.0,7.0,53,0.00,,---,0.00,VWS V14.01,2013-09-10 18:34:00,
2013-09-10 14:39:00,84.2,65.2,30.06,West,267,4.0,7.0,53,0.00,,---,0.00,VWS V14.01,2013-09-10 18:39:00,
2013-09-10 14:44:00,84.3,65.9,30.06,WNW,284,11.0,11.0,54,0.00,,---,0.00,VWS V14.01,2013-09-10 18:44:00,
2013-09-10 14:45:00,84.1,65.7,30.06,West,279,7.0,11.0,54,0.00,,---,0.00,VWS V14.01,2013-09-10 18:45:00,
2013-09-10 14:49:00,84.0,65.6,30.06,WSW,250,5.0,11.0,54,0.00,,---,0.00,VWS V14.01,2013-09-10 18:49:00,
2013-09-10 14:54:00,84.3,65.9,30.06,West,277,9.0,12.0,54,0.00,,---,0.00,VWS V14.01,2013-09-10 18:54:00,
2013-09-10 14:59:00,84.3,65.9,30.06,SSW,213,6.0,14.0,54,0.00,,---,0.00,VWS V14.01,2013-09-10 18:59:00,
2013-09-10 15:00:00,84.3,65.9,30.06,SW,232,6.0,14.0,54,0.00,,---,0.00,VWS V14.01,2013-09-10 19:00:00,
2013-09-10 15:04:00,84.3,65.9,30.06,SW,219,2.0,10.0,54,0.00,,---,0.00,VWS V14.01,2013-09-10 19:04:00,
2013-09-10 15:09:00,84.3,65.9,30.06,WSW,251,6.0,13.0,54,0.00,,---,0.00,VWS V14.01,2013-09-10 19:09:00,
2013-09-10 15:14:00,84.7,65.7,30.05,South,184,9.0,13.0,53,0.00,,---,0.00,VWS V14.01,2013-09-10 19:14:00,
2013-09-10 15:15:00,84.9,66.4,30.05,SW,217,3.0,13.0,54,0.00,,---,0.00,VWS V14.01,2013-09-10 19:15:00,
2013-09-10 15:19:00,84.9,66.4,30.05,SW,223,6.0,13.0,54,0.00,,---,0.00,VWS V14.01,2013-09-10 19:19:00,
2013-09-10 15:24:00,84.3,66.4,30.05,West,270,6.0,14.0,55,0.00,,---,0.00,VWS V14.01,2013-09-10 19:24:00,
2013-09-10 15:29:00,84.7,66.8,30.05,West,263,6.0,14.0,55,0.00,,---,0.00,VWS V14.01,2013-09-10 19:29:00,
2013-09-10 15:30:00,85.0,66.5,30.05,WNW,295,3.0,14.0,54,0.00,,---,0.00,VWS V14.01,2013-09-10 19:30:00,
2013-09-10 15:34:00,85.1,66.6,30.05,SSW,211,8.0,12.0,54,0.00,,---,0.00,VWS V14.01,2013-09-10 19:34:00,
2013-09-10 15:40:00,84.8,66.8,30.05,WSW,244,5.0,16.0,55,0.00,,---,0.00,VWS V14.01,2013-09-10 19:40:00,
2013-09-10 15:45:00,84.8,66.8,30.05,WSW,258,5.0,16.0,55,0.00,,---,0.00,VWS V14.01,2013-09-10 19:45:00,
2013-09-10 15:50:00,85.1,67.1,30.05,SW,229,5.0,11.0,55,0.00,,---,0.00,VWS V14.01,2013-09-10 19:50:00,
2013-09-10 15:55:00,85.2,66.7,30.05,West,262,5.0,11.0,54,0.00,,---,0.00,VWS V14.01,2013-09-10 19:55:00,
2013-09-10 16:00:00,85.3,67.3,30.05,WSW,250,7.0,11.0,55,0.00,,---,0.00,VWS V14.01,2013-09-10 20:00:00,
2013-09-10 16:05:00,85.1,67.1,30.05,West,273,11.0,11.0,55,0.00,,---,0.00,VWS V14.01,2013-09-10 20:05:00,
2013-09-10 16:10:00,85.4,67.4,30.05,SSW,211,6.0,11.0,55,0.00,,---,0.00,VWS V14.01,2013-09-10 20:10:00,
2013-09-10 16:15:00,85.4,67.4,30.04,WNW,287,4.0,13.0,55,0.00,,---,0.00,VWS V14.01,2013-09-10 20:15:00,
2013-09-10 16:20:00,85.2,67.2,30.04,South,186,1.0,15.0,55,0.00,,---,0.00,VWS V14.01,2013-09-10 20:20:00,
2013-09-10 16:25:00,85.5,67.5,30.04,SW,229,4.0,15.0,55,0.00,,---,0.00,VWS V14.01,2013-09-10 20:25:00,
2013-09-10 16:30:00,85.2,67.2,30.05,SW,218,10.0,15.0,55,0.00,,---,0.00,VWS V14.01,2013-09-10 20:30:00,
2013-09-10 16:35:00,85.4,67.4,30.05,WNW,285,8.0,16.0,55,0.00,,---,0.00,VWS V14.01,2013-09-10 20:35:00,
2013-09-10 16:40:00,85.4,67.4,30.05,SW,227,9.0,16.0,55,0.00,,---,0.00,VWS V14.01,2013-09-10 20:40:00,
2013-09-10 16:45:00,85.4,67.9,30.05,WNW,293,15.0,16.0,56,0.00,,---,0.00,VWS V14.01,2013-09-10 20:45:00,
2013-09-10 16:50:00,85.2,67.2,30.04,WSW,237,6.0,12.0,55,0.00,,---,0.00,VWS V14.01,2013-09-10 20:50:00,
2013-09-10 16:55:00,85.2,67.2,30.04,SW,227,8.0,12.0,55,0.00,,---,0.00,VWS V14.01,2013-09-10 20:55:00,
2013-09-10 17:00:00,85.0,67.0,30.04,WNW,303,5.0,16.0,55,0.00,,---,0.00,VWS V14.01,2013-09-10 21:00:00,
2013-09-10 17:06:00,85.2,67.2,30.04,SW,236,5.0,9.0,55,0.00,,---,0.00,VWS V14.01,2013-09-10 21:06:00,
2013-09-10 17:11:00,85.1,67.1,30.04,WSW,246,3.0,11.0,55,0.00,,---,0.00,VWS V14.01,2013-09-10 21:11:00,
2013-09-10 17:15:00,85.0,67.0,30.04,WSW,244,6.0,14.0,55,0.00,,---,0.00,VWS V14.01,2013-09-10 21:15:00,
2013-09-10 17:16:00,85.0,67.0,30.04,SW,228,6.0,14.0,55,0.00,,---,0.00,VWS V14.01,2013-09-10 21:16:00,
2013-09-10 17:21:00,85.0,67.0,30.04,SW,220,11.0,15.0,55,0.00,,---,0.00,VWS V14.01,2013-09-10 21:21:00,
2013-09-10 17:26:00,84.9,66.9,30.04,WSW,256,4.0,15.0,55,0.00,,---,0.00,VWS V14.01,2013-09-10 21:26:00,
2013-09-10 17:30:00,85.0,67.0,30.04,West,275,9.0,15.0,55,0.00,,---,0.00,VWS V14.01,2013-09-10 21:30:00,
2013-09-10 17:31:00,84.9,66.9,30.04,WNW,289,2.0,15.0,55,0.00,,---,0.00,VWS V14.01,2013-09-10 21:31:00,
2013-09-10 17:36:00,85.0,67.0,30.05,WNW,286,3.0,12.0,55,0.00,,---,0.00,VWS V14.01,2013-09-10 21:36:00,
2013-09-10 17:41:00,85.0,67.0,30.05,WSW,237,10.0,12.0,55,0.00,,---,0.00,VWS V14.01,2013-09-10 21:41:00,
2013-09-10 17:45:00,84.8,66.8,30.05,SW,220,8.0,13.0,55,0.00,,---,0.00,VWS V14.01,2013-09-10 21:45:00,
2013-09-10 17:46:00,84.8,66.8,30.05,WSW,242,7.0,13.0,55,0.00,,---,0.00,VWS V14.01,2013-09-10 21:46:00,
2013-09-10 17:51:00,84.6,66.7,30.05,WSW,242,3.0,13.0,55,0.00,,---,0.00,VWS V14.01,2013-09-10 21:51:00,
2013-09-10 17:56:00,84.6,66.7,30.05,WSW,247,3.0,13.0,55,0.00,,---,0.00,VWS V14.01,2013-09-10 21:56:00,
2013-09-10 18:00:00,84.6,66.7,30.05,WSW,237,1.0,13.0,55,0.00,,---,0.00,VWS V14.01,2013-09-10 22:00:00,
2013-09-10 18:01:00,84.5,66.6,30.05,SW,236,0.0,13.0,55,0.00,,---,0.00,VWS V14.01,2013-09-10 22:01:00,
2013-09-10 18:06:00,84.7,66.8,30.05,West,278,4.0,10.0,55,0.00,,---,0.00,VWS V14.01,2013-09-10 22:06:00,
2013-09-10 18:11:00,84.5,66.6,30.05,WSW,246,5.0,10.0,55,0.00,,---,0.00,VWS V14.01,2013-09-10 22:11:00,
2013-09-10 18:15:00,84.4,65.9,30.05,West,276,3.0,10.0,54,0.00,,---,0.00,VWS V14.01,2013-09-10 22:15:00,
2013-09-10 18:16:00,84.4,65.9,30.05,West,276,3.0,10.0,54,0.00,,---,0.00,VWS V14.01,2013-09-10 22:16:00,
2013-09-10 18:21:00,84.4,65.9,30.05,SW,215,1.0,5.0,54,0.00,,---,0.00,VWS V14.01,2013-09-10 22:21:00,
2013-09-10 18:26:00,84.3,65.9,30.05,West,272,0.0,7.0,54,0.00,,---,0.00,VWS V14.01,2013-09-10 22:26:00,
2013-09-10 18:30:00,84.1,65.7,30.05,SW,234,5.0,7.0,54,0.00,,---,0.00,VWS V14.01,2013-09-10 22:30:00,
2013-09-10 18:31:00,84.1,65.7,30.05,WSW,241,5.0,7.0,54,0.00,,---,0.00,VWS V14.01,2013-09-10 22:31:00,
2013-09-10 18:36:00,84.0,65.1,30.05,SW,221,7.0,9.0,53,0.00,,---,0.00,VWS V14.01,2013-09-10 22:36:00,
2013-09-10 18:41:00,83.8,64.9,30.06,West,262,1.0,9.0,53,0.00,,---,0.00,VWS V14.01,2013-09-10 22:41:00,
2013-09-10 18:45:00,83.8,64.9,30.06,WSW,240,8.0,9.0,53,0.00,,---,0.00,VWS V14.01,2013-09-10 22:45:00,
2013-09-10 18:46:00,83.7,64.8,30.06,WSW,246,3.0,8.0,53,0.00,,---,0.00,VWS V14.01,2013-09-10 22:46:00,
2013-09-10 18:51:00,83.6,64.7,30.06,WSW,243,1.0,8.0,53,0.00,,---,0.00,VWS V14.01,2013-09-10 22:51:00,
2013-09-10 18:56:00,83.4,64.5,30.06,WSW,254,1.0,8.0,53,0.00,,---,0.00,VWS V14.01,2013-09-10 22:56:00,
2013-09-10 19:00:00,83.3,64.4,30.06,WSW,238,5.0,8.0,53,0.00,,---,0.00,VWS V14.01,2013-09-10 23:00:00,
2013-09-10 19:01:00,83.3,64.4,30.06,WSW,245,5.0,7.0,53,0.00,,---,0.00,VWS V14.01,2013-09-10 23:01:00,
2013-09-10 19:06:00,83.2,63.8,30.06,SW,223,4.0,9.0,52,0.00,,---,0.00,VWS V14.01,2013-09-10 23:06:00,
2013-09-10 19:12:00,83.1,63.7,30.06,West,275,0.0,9.0,52,0.00,,---,0.00,VWS V14.01,2013-09-10 23:12:00,
2013-09-10 19:15:00,83.0,63.6,30.06,WSW,240,2.0,9.0,52,0.00,,---,0.00,VWS V14.01,2013-09-10 23:15:00,
2013-09-10 19:17:00,83.0,63.6,30.06,WSW,240,1.0,2.0,52,0.00,,---,0.00,VWS V14.01,2013-09-10 23:17:00,
2013-09-10 19:22:00,82.8,63.4,30.06,WSW,240,0.0,2.0,52,0.00,,---,0.00,VWS V14.01,2013-09-10 23:22:00,
2013-09-10 19:27:00,82.6,62.7,30.06,WSW,250,0.0,2.0,51,0.00,,---,0.00,VWS V14.01,2013-09-10 23:27:00,
2013-09-10 19:30:00,82.5,62.6,30.06,WSW,250,0.0,2.0,51,0.00,,---,0.00,VWS V14.01,2013-09-10 23:30:00,
2013-09-10 19:32:00,82.5,62.6,30.06,WSW,250,0.0,0.0,51,0.00,,---,0.00,VWS V14.01,2013-09-10 23:32:00,
2013-09-10 19:37:00,82.4,62.5,30.06,WSW,249,0.0,3.0,51,0.00,,---,0.00,VWS V14.01,2013-09-10 23:37:00,
2013-09-10 19:42:00,82.3,61.8,30.06,WSW,249,0.0,3.0,50,0.00,,---,0.00,VWS V14.01,2013-09-10 23:42:00,
2013-09-10 19:45:00,82.1,61.6,30.06,WSW,249,0.0,3.0,50,0.00,,---,0.00,VWS V14.01,2013-09-10 23:45:00,
2013-09-10 19:47:00,82.1,61.6,30.06,WSW,249,0.0,0.0,50,0.00,,---,0.00,VWS V14.01,2013-09-10 23:47:00,
2013-09-10 19:52:00,82.0,61.0,30.07,WSW,249,0.0,1.0,49,0.00,,---,0.00,VWS V14.01,2013-09-10 23:52:00,
2013-09-10 19:57:00,81.8,60.8,30.07,WSW,248,3.0,3.0,49,0.00,,---,0.00,VWS V14.01,2013-09-10 23:57:00,
2013-09-10 20:00:00,81.7,60.1,30.07,SW,229,0.0,3.0,48,0.00,,---,0.00,VWS V14.01,2013-09-11 00:00:00,
2013-09-10 20:02:00,81.7,60.1,30.07,SW,229,0.0,0.0,48,0.00,,---,0.00,VWS V14.01,2013-09-11 00:02:00,
2013-09-10 20:07:00,81.6,60.0,30.07,South,182,0.0,6.0,48,0.00,,---,0.00,VWS V14.01,2013-09-11 00:07:00,
2013-09-10 20:12:00,81.6,60.0,30.07,South,182,0.0,6.0,48,0.00,,---,0.00,VWS V14.01,2013-09-11 00:12:00,
2013-09-10 20:15:00,81.5,59.9,30.07,South,182,0.0,6.0,48,0.00,,---,0.00,VWS V14.01,2013-09-11 00:15:00,
2013-09-10 20:17:00,81.4,59.3,30.07,South,182,0.0,0.0,47,0.00,,---,0.00,VWS V14.01,2013-09-11 00:17:00,
2013-09-10 20:22:00,81.3,59.2,30.07,South,185,0.0,0.0,47,0.00,,---,0.00,VWS V14.01,2013-09-11 00:22:00,
2013-09-10 20:27:00,81.2,58.5,30.08,SSW,209,0.0,4.0,46,0.00,,---,0.00,VWS V14.01,2013-09-11 00:27:00,
2013-09-10 20:30:00,81.1,58.4,30.08,SSW,206,0.0,4.0,46,0.00,,---,0.00,VWS V14.01,2013-09-11 00:30:00,
2013-09-10 20:32:00,81.1,58.4,30.08,SSW,208,0.0,2.0,46,0.00,,---,0.00,VWS V14.01,2013-09-11 00:32:00,
2013-09-10 20:37:00,81.0,58.3,30.08,SSW,209,0.0,2.0,46,0.00,,---,0.00,VWS V14.01,2013-09-11 00:37:00,
2013-09-10 20:42:00,80.9,57.6,30.08,SSW,209,0.0,2.0,45,0.00,,---,0.00,VWS V14.01,2013-09-11 00:42:00,
2013-09-10 20:45:00,80.8,57.5,30.08,SSW,206,3.0,5.0,45,0.00,,---,0.00,VWS V14.01,2013-09-11 00:45:00,
2013-09-10 20:47:00,80.8,57.5,30.08,SSW,206,0.0,3.0,45,0.00,,---,0.00,VWS V14.01,2013-09-11 00:47:00,
2013-09-10 20:52:00,80.7,56.8,30.08,SW,220,3.0,4.0,44,0.00,,---,0.00,VWS V14.01,2013-09-11 00:52:00,
2013-09-10 20:58:00,80.6,56.7,30.08,SW,221,0.0,4.0,44,0.00,,---,0.00,VWS V14.01,2013-09-11 00:58:00,
2013-09-10 21:00:00,80.6,56.7,30.08,SW,231,0.0,5.0,44,0.00,,---,0.00,VWS V14.01,2013-09-11 01:00:00,
2013-09-10 21:03:00,80.5,56.6,30.08,SW,231,0.0,0.0,44,0.00,,---,0.00,VWS V14.01,2013-09-11 01:03:00,
2013-09-10 21:11:00,80.5,56.0,30.08,SW,219,5.0,6.0,43,0.00,,---,0.00,VWS V14.01,2013-09-11 01:11:00,
2013-09-10 21:15:00,80.3,55.8,30.08,SW,223,0.0,2.0,43,0.00,,---,0.00,VWS V14.01,2013-09-11 01:15:00,
2013-09-10 21:16:00,80.4,55.9,30.08,SW,229,0.0,0.0,43,0.00,,---,0.00,VWS V14.01,2013-09-11 01:16:00,
2013-09-10 21:21:00,80.3,55.8,30.08,SW,223,0.0,1.0,43,0.00,,---,0.00,VWS V14.01,2013-09-11 01:21:00,
2013-09-10 21:26:00,80.2,55.0,30.08,WSW,238,0.0,5.0,42,0.00,,---,0.00,VWS V14.01,2013-09-11 01:26:00,
2013-09-10 21:30:00,80.1,55.0,30.08,SSW,206,0.0,6.0,42,0.00,,---,0.00,VWS V14.01,2013-09-11 01:30:00,
2013-09-10 21:31:00,80.1,55.0,30.08,South,184,1.0,6.0,42,0.00,,---,0.00,VWS V14.01,2013-09-11 01:31:00,
2013-09-10 21:36:00,80.0,54.9,30.08,SW,234,4.0,5.0,42,0.00,,---,0.00,VWS V14.01,2013-09-11 01:36:00,
2013-09-10 21:41:00,79.9,54.1,30.08,SW,223,1.0,5.0,41,0.00,,---,0.00,VWS V14.01,2013-09-11 01:41:00,
2013-09-10 21:45:00,79.8,54.0,30.09,SW,214,1.0,6.0,41,0.00,,---,0.00,VWS V14.01,2013-09-11 01:45:00,
2013-09-10 21:46:00,79.8,54.0,30.08,SW,223,0.0,5.0,41,0.00,,---,0.00,VWS V14.01,2013-09-11 01:46:00,
2013-09-10 21:51:00,79.7,53.9,30.09,WSW,248,5.0,5.0,41,0.00,,---,0.00,VWS V14.01,2013-09-11 01:51:00,
2013-09-10 21:56:00,79.6,53.8,30.09,SW,234,6.0,6.0,41,0.00,,---,0.00,VWS V14.01,2013-09-11 01:56:00,
2013-09-10 22:00:00,79.4,53.0,30.09,WSW,241,0.0,7.0,40,0.00,,---,0.00,VWS V14.01,2013-09-11 02:00:00,
2013-09-10 22:01:00,79.5,53.1,30.09,WSW,245,1.0,7.0,40,0.00,,---,0.00,VWS V14.01,2013-09-11 02:01:00,
2013-09-10 22:06:00,79.4,53.0,30.09,SSW,202,5.0,6.0,40,0.00,,---,0.00,VWS V14.01,2013-09-11 02:06:00,
2013-09-10 22:11:00,79.3,52.2,30.09,WSW,246,3.0,6.0,39,0.00,,---,0.00,VWS V14.01,2013-09-11 02:11:00,
2013-09-10 22:15:00,79.2,52.1,30.09,WSW,238,0.0,8.0,39,0.00,,---,0.00,VWS V14.01,2013-09-11 02:15:00,
2013-09-10 22:16:00,79.3,52.2,30.09,WSW,241,0.0,8.0,39,0.00,,---,0.00,VWS V14.01,2013-09-11 02:16:00,
2013-09-10 22:21:00,79.2,52.1,30.09,West,262,4.0,4.0,39,0.00,,---,0.00,VWS V14.01,2013-09-11 02:21:00,
2013-09-10 22:27:00,79.1,52.0,30.09,SW,215,0.0,4.0,39,0.00,,---,0.00,VWS V14.01,2013-09-11 02:27:00,
2013-09-10 22:30:00,78.9,51.2,30.09,WSW,250,0.0,6.0,38,0.00,,---,0.00,VWS V14.01,2013-09-11 02:30:00,
2013-09-10 22:32:00,79.0,51.2,30.09,WSW,250,0.0,6.0,38,0.00,,---,0.00,VWS V14.01,2013-09-11 02:32:00,
2013-09-10 22:37:00,78.8,51.1,30.09,WSW,252,2.0,5.0,38,0.00,,---,0.00,VWS V14.01,2013-09-11 02:37:00,
2013-09-10 22:42:00,78.7,51.0,30.09,WSW,244,4.0,8.0,38,0.00,,---,0.00,VWS V14.01,2013-09-11 02:42:00,
2013-09-10 22:45:00,78.7,50.3,30.09,SSW,207,1.0,8.0,37,0.00,,---,0.00,VWS V14.01,2013-09-11 02:45:00,
2013-09-10 22:47:00,78.7,50.3,30.09,WSW,254,0.0,8.0,37,0.00,,---,0.00,VWS V14.01,2013-09-11 02:47:00,
2013-09-10 22:52:00,78.7,50.3,30.09,SSW,209,1.0,5.0,37,0.00,,---,0.00,VWS V14.01,2013-09-11 02:52:00,
2013-09-10 22:57:00,78.7,50.3,30.09,West,259,0.0,6.0,37,0.00,,---,0.00,VWS V14.01,2013-09-11 02:57:00,
2013-09-10 23:00:00,78.4,49.3,30.09,WSW,257,0.0,6.0,36,0.00,,---,0.00,VWS V14.01,2013-09-11 03:00:00,
2013-09-10 23:02:00,78.4,50.0,30.09,WSW,257,0.0,6.0,37,0.00,,---,0.00,VWS V14.01,2013-09-11 03:02:00,
2013-09-10 23:07:00,78.3,49.2,30.10,West,259,1.0,4.0,36,0.00,,---,0.00,VWS V14.01,2013-09-11 03:07:00,
2013-09-10 23:12:00,78.2,49.1,30.10,WSW,258,6.0,7.0,36,0.00,,---,0.00,VWS V14.01,2013-09-11 03:12:00,
2013-09-10 23:15:00,78.1,49.0,30.09,WSW,255,0.0,7.0,36,0.00,,---,0.00,VWS V14.01,2013-09-11 03:15:00,
2013-09-10 23:17:00,78.1,49.0,30.10,WSW,255,0.0,7.0,36,0.00,,---,0.00,VWS V14.01,2013-09-11 03:17:00,
2013-09-10 23:22:00,78.0,48.9,30.10,WSW,253,0.0,4.0,36,0.00,,---,0.00,VWS V14.01,2013-09-11 03:22:00,
2013-09-10 23:27:00,77.9,48.1,30.10,SW,219,0.0,4.0,35,0.00,,---,0.00,VWS V14.01,2013-09-11 03:27:00,
2013-09-10 23:30:00,77.8,48.0,30.10,WSW,242,0.0,5.0,35,0.00,,---,0.00,VWS V14.01,2013-09-11 03:30:00,
2013-09-10 23:32:00,77.8,48.0,30.10,WSW,242,0.0,5.0,35,0.00,,---,0.00,VWS V14.01,2013-09-11 03:32:00,
2013-09-10 23:37:00,77.8,48.0,30.10,SW,231,0.0,4.0,35,0.00,,---,0.00,VWS V14.01,2013-09-11 03:37:00,
2013-09-10 23:42:00,77.6,47.8,30.10,SW,229,6.0,6.0,35,0.00,,---,0.00,VWS V14.01,2013-09-11 03:42:00,
2013-09-10 23:45:00,77.4,46.9,30.09,SW,233,0.0,6.0,34,0.00,,---,0.00,VWS V14.01,2013-09-11 03:45:00,
2013-09-10 23:47:00,77.5,47.0,30.10,SW,233,1.0,6.0,34,0.00,,---,0.00,VWS V14.01,2013-09-11 03:47:00,
2013-09-10 23:52:00,77.4,46.9,30.09,SW,214,2.0,8.0,34,0.00,,---,0.00,VWS V14.01,2013-09-11 03:52:00,
2013-09-10 23:57:00,77.3,46.8,30.09,WSW,243,2.0,8.0,34,0.00,,---,0.00,VWS V14.01,2013-09-11 03:57:00,